Weather Roundup
Issued by NWS Chicago, IL

Home | Current Version | Previous Version | Text Only | Print | Product List | Glossary On
Versions: 1 2 3 4 5 6 7 8 9 10 11 12 13 14 15 16 17 18 19 20 21 22 23 24 25 26 27 28 29 30 31 32 33 34 35 36 37 38 39 40 41 42 43 44 45 46 47 48 49 50
000
NZUS59 KLOT 240608
HRRLOT

CHICAGO AREA WEATHER ROUNDUP
NATIONAL WEATHER SERVICE CHICAGO/ROMEOVILLE IL
100 AM CDT TUE MAY 24 2016

NOTE: "FAIR" INDICATES FEW OR NO CLOUDS BELOW 12,000 FEET WITH NO
SIGNIFICANT WEATHER AND/OR OBSTRUCTIONS TO VISIBILITY.

* THESE STATIONS ARE NOT UNDER NWS QUALITY CONTROL. THEY ALSO MAY NOT
  REPORT WEATHER SUCH AS PRECIPITATION OR FOG.

ILZ005-006-012>014-019>023-240700-
NORTHEAST ILLINOIS

CITY           SKY/WX    TMP DP  RH WIND       PRES   REMARKS
OHARE          PTCLDY    60  43  53 S6        29.94R
6HR MIN TEMP:  60; 6HR MAX TEMP:  77;

MIDWAY         PTCLDY    70  40  33 S8        29.95R
6HR MIN TEMP:  69; 6HR MAX TEMP:  79;

AURORA         PTCLDY    63  47  55 S8        29.94S
6HR MIN TEMP:  62; 6HR MAX TEMP:  78;

LANSING*       PTCLDY    60  41  49 S6        29.96S
JOLIET*        CLEAR     65  47  52 CALM      29.95S
WAUKEGAN       CLOUDY    53  46  77 CALM      29.93R
6HR MIN TEMP:  53; 6HR MAX TEMP:  68;

DUPAGE AIRPORT CLEAR     62  44  51 S6        29.94R
6HR MIN TEMP:  61; 6HR MAX TEMP:  76;

WHEELING       CLEAR     60  43  53 S3        29.95R
6HR MIN TEMP:  58; 6HR MAX TEMP:  77;

KANKAKEE*      CLEAR    N/A N/A N/A S7        29.97S
MORRIS*        CLEAR     66  46  47 S7        29.94S
LEWIS AIRPORT* PTCLDY    61  42  49 S8        29.96R
$$

WIZ051-052-058>065-066-070>072-240700-
SOUTHEAST WISCONSIN

CITY           SKY/WX    TMP DP  RH WIND       PRES   REMARKS
MILWAUKEE      PTCLDY    63  39  41 S6        29.92S
6HR MIN TEMP:  62; 6HR MAX TEMP:  73;

KENOSHA*       CLOUDY    60  42  51 S6        29.93R
RACINE*        CLOUDY    61  42  49 S6        29.94S
BURLINGTON     CLEAR     52  46  81 CALM      29.93S
WAUKESHA       CLEAR     61  36  39 S3        29.94R
WEST BEND      CLOUDY    59  36  41 CALM      29.92S
$$

INZ001>003-010>013-019-020-240700-
NORTHWEST INDIANA

CITY           SKY/WX    TMP DP  RH WIND       PRES   REMARKS
GARY*          CLEAR     65  47  52 S5        29.96S
6HR MIN TEMP:  60; 6HR MAX TEMP:  81;

MICHIGAN CITY* NOT AVBL
RENSSELAER*    NOT AVBL
VALPARAISO     PTCLDY    61  37  41 S3        29.98S
$$

LMZ740>746-240700-
SOUTHERN LAKE MICHIGAN

STATION/POSITION TIME  SKY/WX   TEMP WIND        PRES    VSBY
                                AIR  DIR/SP/G
                 (UTC)          (F)  (DEG/KT/KT) (MB)    (MI)
HARRISON CRIB    0520            68  180/ 13/ 13   N/A
BURNHAM HARBOR   0600            68  190/  9/ 11   N/A
CALUMET HARBOR   0500            69  180/  5/  9 1013.6R
BURNS HARBOR     0500            70  160/  9/ 19 1014.9R
MICHIGAN CITY    0500            69  140/ 11/ 13   N/A
$$

ABBREVIATIONS USED IN REMARKS
   TC - TEMPERATURE IN CELSIUS
  WCI - WIND CHILL INDEX
   HX - HEAT INDEX
  VSB - VISIBILITY
$$



USA.gov is the U.S. government's official web portal to all federal, state and local government web resources and services.